Location: Caltech
(34.1382°N, 118.1253°W)
Time: 18:20:53
(UTC-07:00)

Cosmos 1937 Rocket - Visible Passes

Search period start: 26 May 2018 00:00
Search period end: 05 June 2018 00:00
Orbit: 747 x 780 km, 74.0° (Epoch: 26 May)

Date Brightness Start Highest point End Pass type
(mag) Time Alt. Az. Time Alt. Az. Time Alt. Az.
26 May 3.5 21:13:34 10° N 21:18:41 65° ENE 21:21:45 24° SSE visible
26 May 6.0 22:58:38 10° W 22:59:58 11° W 23:01:18 10° WSW visible
27 May 4.3 20:35:34 10° N 20:40:15 34° ENE 20:44:32 12° SE visible
27 May 5.4 22:18:04 10° NW 22:21:55 22° W 22:24:44 14° SW visible
28 May 4.5 21:38:58 10° NNW 21:43:46 41° WSW 21:47:34 15° SSW visible
29 May 3.6 21:00:23 10° NNW 21:05:31 79° WSW 21:10:28 11° S visible
30 May 3.7 20:22:07 10° N 20:27:10 55° ENE 20:32:13 10° SSE visible
30 May 6.0 22:06:12 10° WNW 22:08:33 13° W 22:10:54 10° WSW visible
31 May 5.4 21:26:19 10° NW 21:30:28 25° W 21:34:39 10° SSW visible
01 Jun 4.4 20:47:22 10° NNW 20:52:18 48° WSW 20:57:14 10° S visible
03 Jun 6.0 21:14:07 10° WNW 21:17:07 16° W 21:20:07 10° SW visible
04 Jun 5.4 20:34:36 10° NW 20:39:01 29° W 20:43:27 10° SSW visible
